User: anonymous   Login
Location: Theydon Bois
(51.6750°N, 0.1050°E)
Time: 20:26:16
(UTC+01:00)
Language:

ATLAS 2AS CENTAUR R/B - Orbit

View from above orbital plane
View from above orbital plane
View from above satellite
View from above satellite

Ground track
Ground track

The orbit data is extracted from the following two-line orbital elements,

1 28096U 03054B   18108.79722632 0.00000000  00000-0  00000-0 0    06
2 28096  63.6731   5.3184 0262551 254.1471 105.8529 13.40837050    00
Epoch (UTC): 18 April 2018 19:08:00
Eccentricity: 0.0262551
inclination: 63.6731°
perigee height: 909 km
apogee height: 1302 km
right ascension of ascending node: 5.3184°
argument of perigee: 254.1471°
revolutions per day: 13.40837050
mean anomaly at epoch: 105.8529°
orbit number at epoch: 0

The dashed part of the orbit path shows where the satellite is in the earth's shadow,  

DLR